Weather History for Tillamook, OR

Change the Weather History Date:

Tuesday, February 19, 2013

  Actual Average (KMMV) Record (KMMV)
Temperature  
Mean Temperature 42 °F 43 °F  
Max Temperature 50 °F 51 °F 65 °F (1916)
Min Temperature 33 °F 35 °F 20 °F (1955)
Degree Days  
Heating Degree Days 24 22  
Month to date heating degree days 432  
Since 1 July heating degree days 3187  
Cooling Degree Days 0 0  
Month to date cooling degree days 0  
Year to date cooling degree days 0  
Moisture  
Dew Point 37 °F    
Average Humidity 88    
Maximum Humidity 100    
Minimum Humidity 62    
Precipitation  
Precipitation 0.00 in 0.12 in 2.90 in (1968)
Month to date precipitation 3.10  
Year to date precipitation 9.20  
Sea Level Pressure  
Sea Level Pressure 29.80 in    
Wind  
Wind Speed 3 mph (WSW)    
Max Wind Speed 14 mph    
Max Gust Speed -    
Visibility 8 miles    
Events Fog    
T = Trace of Precipitation, MM = Missing Value Source: NWS Daily Summary

Daily Weather History Graph

Daily Weather History Graph

Search for Another Location

Airport:

Trip Planner

Search our weather history database for the weather conditions in past years. The results will help you decide how hot, cold, wet, or windy it might be!

Date:

Astronomy

Feb. 19, 2013 Rise Set
Actual Time 8:09 AM MST 6:48 PM MST
Civil Twilight 7:39 AM MST 7:18 PM MST
Nautical Twilight 7:05 AM MST 7:53 PM MST
Astronomical Twilight 6:31 AM MST 8:27 PM MST
Moon 1:15 PM MST (2/19) 3:55 AM MST (2/19)
Length of Visible Light 11h 39m
Length of Day
10h 38m
Waxing Gibbous, 68% of the Moon is Illuminated
Feb 19
Waxing Gibbous
Feb 25
Full
Mar 4
Last Quarter
Mar 11
New
Mar 19
First Quarter

Hourly Weather History & Observations

Time (MST) Temp. Windchill Dew Point Humidity Pressure Visibility Wind Dir Wind Speed Gust Speed Precip Events Conditions
12:15 AM 41.0 °F 38.0 °F 39.2 °F 93% 29.73 in 10.0 mi ENE 4.6 mph - N/A   Overcast
12:35 AM 41.0 °F 39.0 °F 39.2 °F 93% 29.73 in 10.0 mi East 3.5 mph - N/A   Mostly Cloudy
12:55 AM 41.0 °F - 39.2 °F 93% 29.72 in 10.0 mi Calm Calm - N/A   Mostly Cloudy
1:15 AM 41.0 °F - 39.2 °F 93% 29.70 in 10.0 mi Calm Calm - N/A   Overcast
1:35 AM 39.2 °F 37.0 °F 37.4 °F 93% 29.71 in 10.0 mi SW 3.5 mph - N/A   Overcast
1:55 AM 39.2 °F - 37.4 °F 93% 29.70 in 10.0 mi Calm Calm - N/A   Overcast
2:15 AM 37.4 °F - 37.4 °F 100% 29.69 in 5.0 mi Calm Calm - N/A   Mostly Cloudy
2:35 AM 37.4 °F - 35.6 °F 93% 29.69 in 1.8 mi Calm Calm - N/A   Scattered Clouds
2:55 AM 35.6 °F 32.8 °F 35.6 °F 100% 29.69 in 0.5 mi South 3.5 mph - N/A Fog Fog
3:15 AM 35.6 °F - 35.6 °F 100% 29.69 in 0.8 mi Calm Calm - N/A   Overcast
3:35 AM 37.4 °F - 37.4 °F 100% 29.68 in 1.2 mi Calm Calm - N/A   Overcast
3:55 AM 35.6 °F - 35.6 °F 100% 29.68 in 0.5 mi Calm Calm - N/A Fog Fog
4:15 AM 33.8 °F - 33.8 °F 100% 29.68 in 0.5 mi Calm Calm - N/A Fog Fog
4:55 AM 35.6 °F - 35.6 °F 100% 29.68 in 3.0 mi Calm Calm - N/A   Overcast
5:35 AM 35.6 °F - 35.6 °F 100% 29.68 in 10.0 mi Calm Calm - N/A   Overcast
5:55 AM 35.6 °F - 35.6 °F 100% 29.67 in 7.0 mi Calm Calm - N/A   Overcast
6:15 AM 35.6 °F - 35.6 °F 100% 29.68 in 10.0 mi Calm Calm - N/A   Overcast
6:35 AM 35.6 °F - 35.6 °F 100% 29.68 in 10.0 mi Calm Calm - N/A   Mostly Cloudy
6:55 AM 35.6 °F - 35.6 °F 100% 29.69 in 4.0 mi Calm Calm - N/A   Scattered Clouds
7:15 AM 35.6 °F - 35.6 °F 100% 29.69 in 7.0 mi Calm Calm - N/A   Scattered Clouds
7:35 AM 33.8 °F - 33.8 °F 100% 29.69 in 0.5 mi Calm Calm - N/A Fog Fog
7:55 AM 33.8 °F - 33.8 °F 100% 29.70 in 1.8 mi Calm Calm - N/A   Mostly Cloudy
8:35 AM 35.6 °F - 35.6 °F 100% 29.72 in 7.0 mi Calm Calm - N/A   Overcast
8:55 AM 35.6 °F 32.8 °F 35.6 °F 100% 29.72 in 7.0 mi SE 3.5 mph - N/A   Mostly Cloudy
9:15 AM 35.6 °F 32.8 °F 35.6 °F 100% 29.73 in 7.0 mi SW 3.5 mph - N/A   Scattered Clouds
9:35 AM 37.4 °F 34.9 °F 37.4 °F 100% 29.73 in 10.0 mi SE 3.5 mph - N/A   Clear
9:55 AM 37.4 °F - 37.4 °F 100% 29.75 in 10.0 mi Calm Calm - N/A   Clear
10:15 AM 39.2 °F - 39.2 °F 100% 29.75 in 10.0 mi Calm Calm - N/A   Clear
10:35 AM 41.0 °F - 41.0 °F 100% 29.76 in 10.0 mi Calm Calm - N/A   Clear
10:55 AM 42.8 °F - 42.8 °F 100% 29.77 in 10.0 mi Calm Calm - N/A   Clear
11:15 AM 46.4 °F - 41.0 °F 81% 29.77 in 10.0 mi Calm Calm - N/A   Mostly Cloudy
11:35 AM 48.2 °F - 41.0 °F 76% 29.77 in 10.0 mi Calm Calm - N/A   Mostly Cloudy
11:55 AM 48.2 °F - 39.2 °F 71% 29.78 in 10.0 mi North 4.6 mph - N/A   Mostly Cloudy
12:15 PM 48.2 °F - 39.2 °F 71% 29.78 in 10.0 mi WNW 4.6 mph - N/A   Overcast
12:35 PM 48.2 °F - 39.2 °F 71% 29.79 in 10.0 mi NW 3.5 mph - N/A   Overcast
12:55 PM 48.2 °F - 39.2 °F 71% 29.80 in 10.0 mi WNW 5.8 mph - N/A   Overcast
1:15 PM 48.2 °F - 39.2 °F 71% 29.81 in 10.0 mi NW 8.1 mph - N/A   Overcast
1:35 PM 50.0 °F - 39.2 °F 66% 29.81 in 10.0 mi NNW 9.2 mph - N/A   Overcast
1:55 PM 50.0 °F - 37.4 °F 62% 29.81 in 10.0 mi NW 9.2 mph - N/A   Mostly Cloudy
2:15 PM 50.0 °F - 37.4 °F 62% 29.82 in 10.0 mi WNW 11.5 mph - N/A   Scattered Clouds
2:35 PM 50.0 °F - 37.4 °F 62% 29.83 in 10.0 mi WNW 11.5 mph - N/A   Clear
2:55 PM 50.0 °F - 39.2 °F 66% 29.84 in 10.0 mi WNW 11.5 mph - N/A   Clear
3:15 PM 50.0 °F - 39.2 °F 66% 29.84 in 10.0 mi West 13.8 mph - N/A   Clear
3:35 PM 50.0 °F - 39.2 °F 66% 29.84 in 10.0 mi WNW 12.7 mph - N/A   Clear
3:55 PM 50.0 °F - 39.2 °F 66% 29.84 in 10.0 mi WNW 12.7 mph - N/A   Clear
4:15 PM 50.0 °F - 39.2 °F 66% 29.85 in 10.0 mi WNW 11.5 mph - N/A   Clear
5:35 PM 48.2 °F - 39.2 °F 71% 29.86 in 10.0 mi West 9.2 mph - N/A   Clear
5:55 PM 48.2 °F - 39.2 °F 71% 29.87 in 10.0 mi WNW 5.8 mph - N/A   Clear
6:15 PM 46.4 °F 42.9 °F 39.2 °F 76% 29.87 in 10.0 mi West 6.9 mph - N/A   Clear
6:35 PM 46.4 °F 44.3 °F 39.2 °F 76% 29.88 in 10.0 mi West 4.6 mph - N/A   Clear
6:55 PM 44.6 °F 42.2 °F 37.4 °F 76% 29.89 in 10.0 mi WSW 4.6 mph - N/A   Clear
7:15 PM 42.8 °F 40.1 °F 37.4 °F 81% 29.90 in 10.0 mi SW 4.6 mph - N/A   Clear
7:35 PM 41.0 °F 37.1 °F 37.4 °F 87% 29.91 in 10.0 mi South 5.8 mph - N/A   Clear
7:55 PM 41.0 °F 37.1 °F 39.2 °F 93% 29.92 in 10.0 mi SSE 5.8 mph - N/A   Scattered Clouds
8:15 PM 41.0 °F 39.0 °F 39.2 °F 93% 29.93 in 10.0 mi SSE 3.5 mph - N/A   Mostly Cloudy
8:55 PM 39.2 °F 35.9 °F 37.4 °F 93% 29.94 in 10.0 mi SE 4.6 mph - N/A   Clear
9:15 PM 39.2 °F - 39.2 °F 100% 29.95 in 10.0 mi Calm Calm - N/A   Clear
9:35 PM 39.2 °F 37.0 °F 37.4 °F 93% 29.96 in 10.0 mi SSE 3.5 mph - N/A   Clear
9:55 PM 37.4 °F - 35.6 °F 93% 29.97 in 10.0 mi Calm Calm - N/A   Clear
10:15 PM 35.6 °F 31.7 °F 35.6 °F 100% 29.98 in 10.0 mi SE 4.6 mph - N/A   Clear
10:35 PM 35.6 °F - 33.8 °F 93% 29.99 in 5.0 mi Calm Calm - N/A   Clear
10:55 PM 35.6 °F 31.7 °F 33.8 °F 93% 30.00 in 10.0 mi SSE 4.6 mph - N/A   Clear
11:15 PM 35.6 °F - 35.6 °F 100% 30.00 in 10.0 mi Calm Calm - N/A   Clear
11:35 PM 33.8 °F - 33.8 °F 100% 30.01 in 7.0 mi Calm Calm - N/A   Clear
11:55 PM 33.8 °F - 33.8 °F 100% 30.02 in 10.0 mi Calm Calm - N/A   Clear